Charlevoix, MI

3:36 PM EDT on August 18, 2017 (GMT -0400)
Charlevoix Municipal

Weather History for KCVX - May, 2013

Change the Weather History Date:

Friday, May 10, 2013

  Actual Average Record
Temperature  
Mean Temperature 40 °F -  
Max Temperature 43 °F 59 °F 80 °F (2001)
Min Temperature 37 °F 44 °F 37 °F (2008)
Degree Days  
Heating Degree Days 25    
Moisture  
Dew Point 39 °F    
Average Humidity 93    
Maximum Humidity 100    
Minimum Humidity 81    
Precipitation  
Precipitation 0.00 in - - ()
Sea Level Pressure  
Sea Level Pressure 30.01 in    
Wind  
Wind Speed 11 mph (NE)    
Max Wind Speed 16 mph    
Max Gust Speed 26 mph    
Visibility 9 miles    
Events Rain , Snow    
Averages and records for this station are not official NWS values.
T = Trace of Precipitation, MM = Missing Value Source: NWS Daily Summary

Daily Weather History Graph

Daily Weather History Graph

Search for Another Location

Airport or City:

Trip Planner

Search our weather history database for the weather conditions in past years. The results will help you decide how hot, cold, wet, or windy it might be!

Date:

Astronomy

May. 10, 2013 Rise Set
Actual Time 6:16 AM EDT 8:58 PM EDT
Civil Twilight 5:43 AM EDT 9:32 PM EDT
Nautical Twilight 5:00 AM EDT 10:15 PM EDT
Astronomical Twilight 4:11 AM EDT 11:05 PM EDT
Moon 6:40 AM EDT (5/10) 9:48 PM EDT (5/10)
Length of Visible Light 15h 49m
Length of Day
14h 41m
New Moon, 0% of the Moon is Illuminated
May 10
New Moon
May 18
First Quarter
May 25
Full
May 31
Last Quarter
Jun 8
New

Hourly Weather History & Observations

Time (EDT) Temp. Windchill Dew Point Humidity Pressure Visibility Wind Dir Wind Speed Gust Speed Precip Events Conditions
12:14 AM 42.1 °F 36.6 °F 41.9 °F 99% 30.06 in 7.0 mi North 9.2 mph - N/A Rain Rain
12:35 AM 42.1 °F 36.1 °F 41.9 °F 99% 30.05 in 5.0 mi North 10.4 mph - N/A Rain Light Rain
1:14 AM 42.4 °F 38.8 °F 42.4 °F 100% 30.05 in 7.0 mi North 5.8 mph - N/A Rain Rain
1:54 AM 43.9 °F 37.5 °F 43.2 °F 97% 30.06 in 7.0 mi ENE 12.7 mph - N/A Rain Light Rain
2:15 AM 43.3 °F 36.5 °F 42.8 °F 98% 30.05 in 7.0 mi ENE 13.8 mph - N/A Rain Light Rain
2:34 AM 42.3 °F 34.8 °F 41.9 °F 99% 30.05 in 7.0 mi ENE 15.0 mph 20.7 mph N/A Rain Light Rain
2:54 AM 41.9 °F 34.6 °F 41.4 °F 98% 30.05 in 7.0 mi ENE 13.8 mph 18.4 mph N/A Rain Light Rain
3:15 AM 41.5 °F 35.0 °F 41.0 °F 98% 30.04 in 7.0 mi ENE 11.5 mph 21.9 mph N/A Rain Rain
3:34 AM 41.0 °F 33.5 °F 40.5 °F 98% 30.04 in 5.0 mi ENE 13.8 mph 23.0 mph N/A Rain Light Rain
3:54 AM 40.8 °F 34.1 °F 40.3 °F 98% 30.04 in 7.0 mi ENE 11.5 mph 17.3 mph N/A Rain Rain
4:15 AM 40.5 °F 33.2 °F 40.3 °F 99% 30.02 in 7.0 mi ENE 12.7 mph 18.4 mph N/A Rain Rain
4:34 AM 40.3 °F 33.0 °F 40.1 °F 99% 30.02 in 7.0 mi ENE 12.7 mph - N/A Rain Light Rain
4:55 AM 40.1 °F 32.4 °F 40.1 °F 100% 30.02 in 7.0 mi ENE 13.8 mph - N/A Rain Light Rain
5:15 AM 40.1 °F 32.0 °F 39.6 °F 98% 30.01 in 10.0 mi ENE 15.0 mph 21.9 mph N/A Rain Light Rain
5:34 AM 39.7 °F 31.5 °F 39.4 °F 99% 30.01 in 10.0 mi ENE 15.0 mph - N/A Rain Light Rain
5:55 AM 39.2 °F 30.5 °F 39.0 °F 99% 30.01 in 10.0 mi ENE 16.1 mph 21.9 mph N/A Rain Light Rain
6:14 AM 39.2 °F 30.8 °F 38.5 °F 97% 30.01 in 7.0 mi ENE 15.0 mph 23.0 mph N/A Rain Light Rain
6:34 AM 38.7 °F 30.1 °F 38.3 °F 99% 30.01 in 7.0 mi ENE 15.0 mph 26.5 mph N/A Rain Light Rain
6:55 AM 38.3 °F 29.7 °F 37.8 °F 98% 30.01 in 7.0 mi ENE 15.0 mph 21.9 mph N/A Rain Light Rain
7:14 AM 37.9 °F 28.9 °F 37.6 °F 99% 30.01 in 5.0 mi ENE 16.1 mph - N/A Snow Light Snow
7:35 AM 37.6 °F 28.4 °F 37.4 °F 99% 30.01 in 7.0 mi ENE 16.1 mph 21.9 mph N/A Rain Light Rain
8:14 AM 37.8 °F 29.8 °F 37.6 °F 99% 30.01 in 10.0 mi ENE 12.7 mph - N/A Rain Light Rain
8:35 AM 38.1 °F 30.7 °F 37.8 °F 99% 30.02 in 10.0 mi ENE 11.5 mph - N/A   Light Drizzle
9:14 AM 38.3 °F 31.4 °F 37.9 °F 99% 30.02 in 10.0 mi NE 10.4 mph - N/A Rain Light Rain
9:35 AM 37.9 °F 31.5 °F 37.8 °F 99% 30.02 in 10.0 mi NE 9.2 mph 16.1 mph N/A Rain Light Rain
9:54 AM 37.9 °F 31.5 °F 37.8 °F 99% 30.03 in 10.0 mi NE 9.2 mph - N/A Rain Light Rain
10:14 AM 37.9 °F 30.5 °F 37.6 °F 99% 30.02 in 10.0 mi NE 11.5 mph 19.6 mph N/A Rain Light Rain
10:35 AM 38.3 °F 31.9 °F 37.8 °F 98% 30.02 in 10.0 mi NE 9.2 mph - N/A Rain Light Rain
10:54 AM 38.5 °F 31.1 °F 37.9 °F 98% 30.02 in 10.0 mi NE 11.5 mph - N/A Rain Light Rain
11:14 AM 38.8 °F 31.2 °F 38.1 °F 97% 30.02 in 10.0 mi NE 12.7 mph 17.3 mph N/A Rain Light Rain
11:35 AM 39.2 °F 31.2 °F 38.7 °F 98% 30.02 in 10.0 mi NE 13.8 mph - N/A Rain Light Rain
11:54 AM 39.6 °F 32.5 °F 38.8 °F 97% 30.02 in 10.0 mi NE 11.5 mph - N/A Rain Light Rain
12:15 PM 39.9 °F 33.4 °F 39.0 °F 97% 30.02 in 10.0 mi NE 10.4 mph - N/A   Light Drizzle
12:34 PM 40.5 °F 33.2 °F 39.0 °F 95% 30.02 in 10.0 mi NE 12.7 mph 20.7 mph N/A   Light Drizzle
1:15 PM 41.7 °F 35.6 °F 40.1 °F 94% 30.02 in 10.0 mi NE 10.4 mph - N/A   Light Drizzle
1:34 PM 40.1 °F 33.6 °F 39.6 °F 98% 30.02 in 10.0 mi North 10.4 mph - N/A   Overcast
1:54 PM 40.1 °F 34.7 °F 39.7 °F 99% 30.02 in 10.0 mi North 8.1 mph - N/A   Overcast
2:15 PM 41.0 °F 34.3 °F 40.5 °F 98% 30.02 in 10.0 mi NNE 11.5 mph - N/A   Overcast
2:34 PM 42.1 °F 35.2 °F 40.3 °F 93% 30.01 in 10.0 mi NNE 12.7 mph 16.1 mph N/A   Overcast
2:54 PM 42.3 °F 35.5 °F 39.6 °F 90% 30.01 in 10.0 mi ENE 12.7 mph - N/A   Overcast
3:15 PM 42.3 °F 35.5 °F 39.7 °F 91% 30.01 in 10.0 mi NE 12.7 mph - N/A   Overcast
3:34 PM 42.3 °F 36.3 °F 39.2 °F 89% 30.01 in 10.0 mi NE 10.4 mph - N/A   Overcast
3:54 PM 42.6 °F 35.6 °F 39.0 °F 87% 30.01 in 10.0 mi NNE 13.8 mph - N/A   Overcast
4:15 PM 42.1 °F 35.2 °F 38.3 °F 86% 30.00 in 10.0 mi NE 12.7 mph - N/A   Overcast
4:34 PM 42.3 °F 35.9 °F 38.5 °F 86% 30.00 in 10.0 mi ENE 11.5 mph 16.1 mph N/A   Overcast
4:55 PM 43.0 °F 37.7 °F 38.7 °F 85% 30.00 in 10.0 mi ENE 9.2 mph - N/A   Overcast
5:14 PM 42.3 °F 35.9 °F 38.3 °F 86% 30.01 in 10.0 mi ENE 11.5 mph - N/A   Overcast
5:34 PM 42.1 °F 35.7 °F 37.8 °F 85% 30.00 in 10.0 mi ENE 11.5 mph - N/A   Overcast
5:55 PM 42.3 °F 37.9 °F 37.4 °F 83% 30.01 in 10.0 mi ENE 6.9 mph - N/A   Overcast
6:34 PM 41.9 °F 37.5 °F 37.0 °F 83% 30.00 in 10.0 mi NE 6.9 mph - N/A   Overcast
6:55 PM 40.5 °F 36.5 °F 37.4 °F 89% 30.00 in 10.0 mi North 5.8 mph - N/A   Overcast
7:14 PM 41.2 °F 37.3 °F 37.8 °F 88% 30.00 in 10.0 mi NNE 5.8 mph - N/A   Overcast
7:34 PM 41.7 °F 36.7 °F 37.6 °F 85% 29.99 in 10.0 mi NE 8.1 mph - N/A   Overcast
7:55 PM 41.9 °F 36.9 °F 37.6 °F 85% 29.98 in 10.0 mi ENE 8.1 mph - N/A   Overcast
8:14 PM 41.9 °F 37.5 °F 37.2 °F 83% 29.98 in 10.0 mi ENE 6.9 mph - N/A   Overcast
8:34 PM 41.9 °F 38.2 °F 37.0 °F 83% 29.98 in 10.0 mi ENE 5.8 mph - N/A   Overcast
8:55 PM 42.1 °F 38.4 °F 37.0 °F 82% 29.98 in 10.0 mi East 5.8 mph - N/A   Overcast
9:14 PM 42.1 °F 39.2 °F 36.9 °F 82% 29.98 in 10.0 mi East 4.6 mph - N/A   Overcast
9:35 PM 42.1 °F 39.2 °F 36.7 °F 81% 29.98 in 10.0 mi East 4.6 mph - N/A   Overcast
9:55 PM 42.1 °F 39.2 °F 37.0 °F 82% 29.98 in 10.0 mi ENE 4.6 mph - N/A   Overcast
10:14 PM 42.1 °F 39.2 °F 36.9 °F 82% 29.99 in 10.0 mi East 4.6 mph - N/A   Overcast
10:35 PM 42.3 °F - 37.2 °F 82% 29.99 in 10.0 mi Calm Calm - N/A   Overcast
10:54 PM 42.1 °F 40.2 °F 37.2 °F 83% 29.99 in 10.0 mi East 3.5 mph - N/A   Overcast
11:15 PM 42.1 °F 40.2 °F 37.0 °F 82% 29.98 in 10.0 mi ESE 3.5 mph - N/A   Overcast
11:34 PM 42.1 °F - 37.2 °F 83% 29.97 in 10.0 mi Calm Calm - N/A   Overcast
11:54 PM 42.1 °F - 37.6 °F 84% 29.97 in 10.0 mi Calm Calm - N/A   Overcast